| time (UTC) | temp F | wind direction | speed MPH | gust MPH | rain 1hr in | rain 24hr in | rain mn in | humidity % | barometer mb |
| 20260902150121 | 69 | 138 | 0.0 | 1.0 | 0.17 | 0.25 | 0.25 | 99 | 1018.7 |
| 20260902145621 | 69 | 236 | 1.0 | 1.0 | 0.12 | 0.23 | 0.23 | 99 | 1018.3 |
| 20260902145121 | 69 | 137 | 1.0 | 2.0 | 0.12 | 0.22 | 0.22 | 99 | 1018.5 |
| 20260902144618 | 69 | 140 | 1.0 | 1.0 | 0.12 | 0.21 | 0.21 | 99 | 1018.2 |
| 20260902144118 | 69 | 276 | 4.0 | 6.0 | 0.66 | 0.20 | 0.20 | 99 | 1018.0 |
| 20260902143613 | 69 | 194 | 1.0 | 2.0 | 0.78 | 0.19 | 0.19 | 99 | 1017.9 |
| 20260902143108 | 70 | 304 | 3.0 | 3.0 | 0.35 | 0.11 | 0.11 | 99 | 1018.5 |
| 20260902142605 | 70 | 255 | 2.0 | 3.0 | 0.12 | 0.06 | 0.06 | 99 | 1018.5 |
| 20260902142059 | 70 | 178 | 2.0 | 3.0 | 0.07 | 0.05 | 0.05 | 99 | 1018.2 |
| 20260902141559 | 70 | 262 | 1.0 | 2.0 | 0.12 | 0.04 | 0.04 | 99 | 1018.1 |
| 20260902141054 | 70 | 100 | 1.0 | 2.0 | 0.24 | 0.04 | 0.04 | 99 | 1018.1 |
| 20260902140549 | 70 | 125 | 1.0 | 1.0 | 0.12 | 0.02 | 0.02 | 99 | 1018.4 |
| 20260902140045 | 70 | 192 | 1.0 | 1.0 | 0.00 | 0.00 | 0.00 | 99 | 1018.8 |
| 20260902135544 | 70 | 150 | 0.0 | 0.0 | 0.00 | 0.00 | 0.00 | 99 | 1018.7 |
| 20260902135044 | 70 | 145 | 1.0 | 1.0 | 0.00 | 0.00 | 0.00 | 99 | 1018.9 |
| 20260902134540 | 70 | 194 | 1.0 | 1.0 | 0.00 | 0.00 | 0.00 | 99 | 1019.1 |
| 20260902134040 | 70 | 225 | 2.0 | 2.0 | 0.00 | 0.00 | 0.00 | 99 | 1019.0 |
| 20260902133535 | 70 | 180 | 0.0 | 0.0 | 0.00 | 0.00 | 0.00 | 99 | 1018.9 |
| 20260902133029 | 70 | 181 | 0.0 | 1.0 | 0.00 | 0.00 | 0.00 | 99 | 1018.7 |
| 20260902132524 | 70 | 272 | 2.0 | 2.0 | 0.00 | 0.00 | 0.00 | 99 | 1018.7 |
| 20260902132020 | 70 | 146 | 0.0 | 1.0 | 0.00 | 0.00 | 0.00 | 99 | 1017.9 |
| 20260902131516 | 70 | 151 | 1.0 | 1.0 | 0.00 | 0.00 | 0.00 | 99 | 1018.2 |
| 20260902131016 | 70 | 128 | 0.0 | 0.0 | 0.00 | 0.00 | 0.00 | 99 | 1018.3 |
| 20260902130512 | 70 | 185 | 0.0 | 1.0 | 0.00 | 0.00 | 0.00 | 99 | 1018.4 |
| 20260902130007 | 70 | 236 | 2.0 | 3.0 | 0.00 | 0.00 | 0.00 | 99 | 1018.4 |
| 20260902125503 | 70 | 158 | 0.0 | 0.0 | 0.00 | 0.00 | 0.00 | 99 | 1018.3 |
| 20260902124958 | 70 | 179 | 1.0 | 1.0 | 0.00 | 0.00 | 0.00 | 99 | 1018.4 |
| 20260902124454 | 70 | 141 | 1.0 | 1.0 | 0.00 | 0.00 | 0.00 | 99 | 1018.3 |
| 20260902123949 | 70 | 138 | 0.0 | 1.0 | 0.00 | 0.00 | 0.00 | 99 | 1018.4 |
| 20260902123445 | 70 | 208 | 0.0 | 0.0 | 0.00 | 0.00 | 0.00 | 99 | 1018.2 |
| 20260902122943 | 70 | 154 | 1.0 | 1.0 | 0.00 | 0.00 | 0.00 | 99 | 1018.4 |
| 20260902122435 | 70 | 258 | 2.0 | 2.0 | 0.00 | 0.00 | 0.00 | 99 | 1018.0 |
| 20260902121930 | 70 | 126 | 0.0 | 1.0 | 0.00 | 0.00 | 0.00 | 99 | 1018.0 |
| 20260902121424 | 70 | 79 | 1.0 | 1.0 | 0.00 | 0.00 | 0.00 | 99 | 1018.2 |
| 20260902120924 | 70 | 148 | 0.0 | 0.0 | 0.00 | 0.00 | 0.00 | 99 | 1017.7 |
| 20260902120421 | 70 | 169 | 1.0 | 1.0 | 0.00 | 0.00 | 0.00 | 99 | 1018.0 |
| 20260902115920 | 70 | 191 | 1.0 | 1.0 | 0.00 | 0.00 | 0.00 | 99 | 1017.9 |
| 20260902115416 | 70 | 189 | 0.0 | 1.0 | 0.00 | 0.00 | 0.00 | 99 | 1017.9 |
| 20260902114914 | 70 | 165 | 1.0 | 1.0 | 0.00 | 0.00 | 0.00 | 99 | 1018.2 |
| 20260902114409 | 69 | 130 | 0.0 | 0.0 | 0.00 | 0.00 | 0.00 | 99 | 1017.9 |
| 20260902113909 | 69 | 147 | 1.0 | 1.0 | 0.00 | 0.00 | 0.00 | 99 | 1017.7 |
| 20260902113404 | 69 | 204 | 1.0 | 2.0 | 0.00 | 0.00 | 0.00 | 99 | 1017.7 |
| 20260902112904 | 69 | 114 | 0.0 | 0.0 | 0.00 | 0.00 | 0.00 | 99 | 1017.6 |
| 20260902112400 | 69 | 140 | 0.0 | 1.0 | 0.00 | 0.00 | 0.00 | 99 | 1017.7 |
| 20260902111855 | 69 | 136 | 1.0 | 1.0 | 0.00 | 0.00 | 0.00 | 99 | 1017.7 |
| 20260902111352 | 69 | 168 | 1.0 | 2.0 | 0.00 | 0.00 | 0.00 | 99 | 1017.6 |
| 20260902110847 | 69 | 168 | 1.0 | 1.0 | 0.00 | 0.00 | 0.00 | 99 | 1017.6 |
| 20260902110343 | 69 | 150 | 1.0 | 1.0 | 0.00 | 0.00 | 0.00 | 99 | 1017.5 |
| 20260902105843 | 69 | 137 | 0.0 | 0.0 | 0.00 | 0.00 | 0.00 | 99 | 1017.6 |
| 20260902105338 | 69 | 109 | 0.0 | 0.0 | 0.00 | 0.00 | 0.00 | 99 | 1017.4 |
| 20260902104833 | 69 | 129 | 0.0 | 0.0 | 0.00 | 0.00 | 0.00 | 99 | 1017.5 |
| 20260902104329 | 69 | 133 | 0.0 | 0.0 | 0.00 | 0.00 | 0.00 | 99 | 1017.4 |
| 20260902103824 | 69 | 40 | 0.0 | 0.0 | 0.00 | 0.00 | 0.00 | 99 | 1018.0 |
| 20260902103318 | 69 | 40 | 0.0 | 0.0 | 0.00 | 0.00 | 0.00 | 99 | 1017.9 |
| 20260902102813 | 68 | 40 | 0.0 | 0.0 | 0.00 | 0.00 | 0.00 | 99 | 1017.8 |
| 20260902102311 | 68 | 40 | 0.0 | 0.0 | 0.00 | 0.00 | 0.00 | 99 | 1017.9 |
| 20260902101806 | 68 | 40 | 0.0 | 1.0 | 0.00 | 0.00 | 0.00 | 99 | 1018.1 |
| 20260902101301 | 68 | 40 | 1.0 | 1.0 | 0.00 | 0.00 | 0.00 | 99 | 1017.8 |
| 20260902100801 | 68 | 40 | 1.0 | 1.0 | 0.00 | 0.00 | 0.00 | 99 | 1017.8 |
| 20260902100300 | 68 | 40 | 1.0 | 1.0 | 0.00 | 0.00 | 0.00 | 99 | 1018.1 |
| 20260902095755 | 68 | 41 | 1.0 | 1.0 | 0.00 | 0.00 | 0.00 | 99 | 1017.8 |
| 20260902095256 | 68 | 41 | 1.0 | 1.0 | 0.00 | 0.00 | 0.00 | 99 | 1017.9 |
| 20260902094750 | 68 | 41 | 1.0 | 1.0 | 0.00 | 0.00 | 0.00 | 99 | 1018.0 |
| 20260902094246 | 68 | 53 | 0.0 | 1.0 | 0.00 | 0.00 | 0.00 | 99 | 1017.8 |
| 20260902093746 | 68 | 54 | 1.0 | 1.0 | 0.00 | 0.00 | 0.00 | 99 | 1017.8 |
| 20260902093241 | 68 | 55 | 0.0 | 0.0 | 0.00 | 0.00 | 0.00 | 99 | 1017.8 |
| 20260902092740 | 68 | 55 | 0.0 | 0.0 | 0.00 | 0.00 | 0.00 | 99 | 1017.9 |
| 20260902092236 | 68 | 15 | 1.0 | 1.0 | 0.00 | 0.00 | 0.00 | 99 | 1017.9 |
| 20260902091735 | 68 | 23 | 0.0 | 0.0 | 0.00 | 0.00 | 0.00 | 99 | 1017.8 |
| 20260902091232 | 68 | 53 | 0.0 | 1.0 | 0.00 | 0.00 | 0.00 | 99 | 1017.6 |
| 20260902090728 | 68 | 53 | 0.0 | 0.0 | 0.00 | 0.00 | 0.00 | 99 | 1017.9 |
| 20260902090227 | 68 | 53 | 0.0 | 0.0 | 0.00 | 0.00 | 0.00 | 99 | 1018.0 |
| 20260902085721 | 68 | 53 | 0.0 | 0.0 | 0.00 | 0.00 | 0.00 | 99 | 1018.0 |
| 20260902085217 | 68 | 53 | 0.0 | 0.0 | 0.00 | 0.00 | 0.00 | 99 | 1018.2 |
| 20260902084713 | 68 | 54 | 1.0 | 1.0 | 0.00 | 0.00 | 0.00 | 99 | 1018.0 |
| 20260902084209 | 68 | 54 | 0.0 | 0.0 | 0.00 | 0.00 | 0.00 | 99 | 1018.0 |
| 20260902083708 | 68 | 55 | 1.0 | 1.0 | 0.00 | 0.00 | 0.00 | 99 | 1018.0 |
| 20260902083203 | 68 | 55 | 1.0 | 1.0 | 0.00 | 0.00 | 0.00 | 99 | 1017.9 |
| 20260902082658 | 68 | 55 | 0.0 | 0.0 | 0.00 | 0.00 | 0.00 | 99 | 1018.0 |
| 20260902082154 | 68 | 55 | 0.0 | 0.0 | 0.00 | 0.00 | 0.00 | 99 | 1018.0 |
| 20260902081650 | 68 | 55 | 0.0 | 0.0 | 0.00 | 0.00 | 0.00 | 99 | 1017.8 |
| 20260902081145 | 68 | 55 | 0.0 | 0.0 | 0.00 | 0.00 | 0.00 | 99 | 1017.6 |
| 20260902080640 | 68 | 55 | 0.0 | 0.0 | 0.00 | 0.00 | 0.00 | 99 | 1017.6 |
| 20260902080137 | 67 | 55 | 0.0 | 0.0 | 0.00 | 0.00 | 0.00 | 99 | 1017.7 |
| 20260902075636 | 67 | 55 | 0.0 | 0.0 | 0.00 | 0.00 | 0.00 | 99 | 1017.7 |
| 20260902075127 | 67 | 55 | 0.0 | 0.0 | 0.00 | 0.00 | 0.00 | 99 | 1017.7 |
| 20260902074622 | 67 | 55 | 0.0 | 0.0 | 0.00 | 0.00 | 0.00 | 99 | 1017.5 |
| 20260902074117 | 67 | 55 | 0.0 | 0.0 | 0.00 | 0.00 | 0.00 | 99 | 1017.5 |
| 20260902073613 | 67 | 55 | 0.0 | 0.0 | 0.00 | 0.00 | 0.00 | 99 | 1017.5 |
| 20260902073109 | 67 | 55 | 0.0 | 0.0 | 0.00 | 0.00 | 0.00 | 99 | 1017.6 |
| 20260902072604 | 67 | 55 | 0.0 | 0.0 | 0.00 | 0.00 | 0.00 | 99 | 1017.6 |
| 20260902072101 | 68 | 55 | 0.0 | 0.0 | 0.00 | 0.00 | 0.00 | 99 | 1017.7 |
| 20260902071600 | 68 | 55 | 0.0 | 0.0 | 0.00 | 0.00 | 0.00 | 99 | 1017.4 |
| 20260902071056 | 68 | 55 | 0.0 | 0.0 | 0.00 | 0.00 | 0.00 | 99 | 1017.4 |
| 20260902070552 | 68 | 55 | 0.0 | 0.0 | 0.00 | 0.00 | 0.00 | 99 | 1017.5 |
| 20260902070047 | 67 | 55 | 0.0 | 0.0 | 0.00 | 0.00 | 0.00 | 99 | 1017.6 |
| 20260902065546 | 67 | 55 | 0.0 | 0.0 | 0.00 | 0.00 | 0.00 | 99 | 1017.6 |
| 20260902065042 | 67 | 55 | 0.0 | 0.0 | 0.00 | 0.00 | 0.00 | 99 | 1017.8 |
| 20260902064538 | 67 | 55 | 0.0 | 0.0 | 0.00 | 0.00 | 0.00 | 99 | 1017.9 |
| 20260902064033 | 67 | 55 | 1.0 | 1.0 | 0.00 | 0.00 | 0.00 | 99 | 1017.8 |
| 20260902063532 | 68 | 55 | 0.0 | 0.0 | 0.00 | 0.00 | 0.00 | 99 | 1017.7 |
| 20260902063028 | 68 | 55 | 0.0 | 0.0 | 0.00 | 0.00 | 0.00 | 99 | 1017.9 |
| 20260902062526 | 68 | 55 | 0.0 | 0.0 | 0.00 | 0.00 | 0.00 | 99 | 1017.6 |
| 20260902062023 | 68 | 55 | 0.0 | 0.0 | 0.00 | 0.00 | 0.00 | 99 | 1017.9 |
| 20260902061522 | 68 | 55 | 0.0 | 0.0 | 0.00 | 0.00 | 0.00 | 99 | 1017.9 |
| 20260902061018 | 68 | 55 | 0.0 | 0.0 | 0.00 | 0.00 | 0.00 | 99 | 1017.9 |
| 20260902060515 | 67 | 55 | 0.0 | 0.0 | 0.00 | 0.00 | 0.00 | 99 | 1018.1 |
| 20260902060011 | 67 | 55 | 0.0 | 0.0 | 0.00 | 0.00 | 0.00 | 99 | 1017.9 |
| 20260902055506 | 67 | 55 | 0.0 | 0.0 | 0.00 | 0.00 | 0.00 | 99 | 1017.9 |
| 20260902055001 | 67 | 55 | 0.0 | 0.0 | 0.00 | 0.00 | 0.00 | 99 | 1017.9 |
| 20260902054456 | 67 | 55 | 0.0 | 0.0 | 0.00 | 0.00 | 0.00 | 99 | 1018.0 |
| 20260902053951 | 67 | 55 | 0.0 | 0.0 | 0.00 | 0.00 | 0.00 | 99 | 1017.8 |
| 20260902053446 | 67 | 55 | 0.0 | 0.0 | 0.00 | 0.00 | 0.00 | 99 | 1017.8 |
| 20260902052946 | 67 | 55 | 0.0 | 0.0 | 0.00 | 0.00 | 0.00 | 99 | 1017.9 |
| 20260902052446 | 67 | 55 | 0.0 | 0.0 | 0.00 | 0.00 | 0.00 | 99 | 1017.9 |
| 20260902051941 | 67 | 55 | 1.0 | 1.0 | 0.00 | 0.00 | 0.00 | 99 | 1017.8 |
| 20260902051436 | 67 | 55 | 0.0 | 0.0 | 0.00 | 0.00 | 0.00 | 99 | 1017.7 |
| 20260902050935 | 66 | 55 | 0.0 | 0.0 | 0.00 | 0.00 | 0.00 | 99 | 1017.8 |
| 20260902050435 | 66 | 55 | 0.0 | 0.0 | 0.00 | 0.00 | 0.00 | 99 | 1017.7 |
| 20260902045930 | 66 | 55 | 0.0 | 0.0 | 0.00 | 0.00 | 0.00 | 99 | 1017.7 |
| 20260902045425 | 67 | 55 | 0.0 | 0.0 | 0.00 | 0.00 | 0.00 | 99 | 1017.4 |
| 20260902044922 | 67 | 55 | 0.0 | 1.0 | 0.00 | 0.00 | 0.00 | 99 | 1017.5 |
| 20260902044417 | 67 | 55 | 0.0 | 0.0 | 0.00 | 0.00 | 0.00 | 99 | 1017.6 |
| 20260902043912 | 67 | 55 | 0.0 | 0.0 | 0.00 | 0.00 | 0.00 | 99 | 1017.3 |
| 20260902043407 | 67 | 55 | 0.0 | 0.0 | 0.00 | 0.00 | 0.00 | 99 | 1017.5 |
| 20260902042902 | 67 | 55 | 0.0 | 0.0 | 0.00 | 0.00 | 0.00 | 99 | 1017.5 |
| 20260902042401 | 67 | 55 | 0.0 | 0.0 | 0.00 | 0.00 | 0.00 | 99 | 1017.4 |
| 20260902041857 | 67 | 55 | 0.0 | 0.0 | 0.00 | 0.00 | 0.00 | 99 | 1017.3 |
| 20260902041357 | 68 | 55 | 0.0 | 0.0 | 0.00 | 0.00 | 0.00 | 99 | 1017.5 |
| 20260902040856 | 68 | 55 | 0.0 | 1.0 | 0.00 | 0.00 | 0.00 | 99 | 1017.1 |
| 20260902040352 | 68 | 55 | 0.0 | 0.0 | 0.00 | 0.00 | 0.00 | 99 | 1017.2 |
| 20260902035850 | 68 | 55 | 1.0 | 1.0 | 0.00 | 0.23 | 0.23 | 99 | 1017.4 |
| 20260902035346 | 69 | 55 | 0.0 | 0.0 | 0.00 | 0.23 | 0.23 | 99 | 1017.2 |
| 20260902034844 | 68 | 55 | 0.0 | 1.0 | 0.00 | 0.23 | 0.23 | 99 | 1017.0 |
| 20260902034340 | 68 | 55 | 0.0 | 0.0 | 0.00 | 0.23 | 0.23 | 99 | 1017.2 |
| 20260902033838 | 68 | 55 | 0.0 | 0.0 | 0.00 | 0.23 | 0.23 | 99 | 1017.3 |
| 20260902033333 | 68 | 55 | 0.0 | 0.0 | 0.00 | 0.23 | 0.23 | 99 | 1017.3 |
| 20260902032832 | 69 | 55 | 0.0 | 0.0 | 0.00 | 0.23 | 0.23 | 99 | 1017.0 |
| 20260902032327 | 69 | 55 | 0.0 | 1.0 | 0.00 | 0.23 | 0.23 | 99 | 1016.9 |
| 20260902031827 | 69 | 55 | 1.0 | 1.0 | 0.00 | 0.23 | 0.23 | 99 | 1017.1 |
| 20260902031323 | 69 | 55 | 0.0 | 1.0 | 0.00 | 0.23 | 0.23 | 99 | 1017.1 |
| 20260902030819 | 69 | 55 | 0.0 | 0.0 | 0.00 | 0.23 | 0.23 | 99 | 1017.3 |
| 20260902030313 | 69 | 55 | 0.0 | 0.0 | 0.00 | 0.23 | 0.23 | 99 | 1017.1 |
| 20260902025812 | 69 | 55 | 1.0 | 1.0 | 0.00 | 0.23 | 0.23 | 99 | 1017.2 |
| 20260902025308 | 69 | 55 | 0.0 | 0.0 | 0.00 | 0.23 | 0.23 | 99 | 1017.1 |
| 20260902024802 | 69 | 55 | 0.0 | 0.0 | 0.00 | 0.23 | 0.23 | 99 | 1017.4 |
| 20260902024258 | 69 | 55 | 0.0 | 0.0 | 0.00 | 0.23 | 0.23 | 99 | 1017.2 |
| 20260902023753 | 69 | 55 | 0.0 | 0.0 | 0.00 | 0.23 | 0.23 | 99 | 1017.0 |
| 20260902023249 | 69 | 55 | 0.0 | 0.0 | 0.00 | 0.23 | 0.23 | 99 | 1017.0 |
| 20260902022748 | 69 | 55 | 1.0 | 1.0 | 0.00 | 0.23 | 0.23 | 99 | 1017.1 |
| 20260902022243 | 69 | 55 | 0.0 | 0.0 | 0.00 | 0.23 | 0.23 | 99 | 1017.2 |
| 20260902021739 | 70 | 55 | 0.0 | 0.0 | 0.00 | 0.23 | 0.23 | 99 | 1017.2 |
| 20260902021238 | 70 | 55 | 1.0 | 1.0 | 0.00 | 0.23 | 0.23 | 99 | 1017.0 |
| 20260902020735 | 70 | 55 | 0.0 | 0.0 | 0.00 | 0.23 | 0.23 | 99 | 1017.0 |
| 20260902020231 | 70 | 55 | 0.0 | 0.0 | 0.00 | 0.23 | 0.23 | 99 | 1016.9 |
| 20260902015726 | 70 | 55 | 0.0 | 0.0 | 0.00 | 0.23 | 0.23 | 99 | 1017.0 |
| 20260902015222 | 70 | 55 | 0.0 | 0.0 | 0.00 | 0.23 | 0.23 | 99 | 1017.0 |
| 20260902014717 | 70 | 55 | 0.0 | 0.0 | 0.00 | 0.23 | 0.23 | 99 | 1017.1 |
| 20260902014214 | 70 | 55 | 1.0 | 1.0 | 0.00 | 0.23 | 0.23 | 99 | 1016.9 |
| 20260902013712 | 70 | 55 | 0.0 | 0.0 | 0.00 | 0.23 | 0.23 | 99 | 1017.1 |
| 20260902013208 | 70 | 55 | 0.0 | 0.0 | 0.00 | 0.23 | 0.23 | 99 | 1016.9 |
| 20260902012703 | 70 | 55 | 0.0 | 0.0 | 0.00 | 0.23 | 0.23 | 99 | 1017.1 |
| 20260902012159 | 70 | 55 | 0.0 | 0.0 | 0.00 | 0.23 | 0.23 | 99 | 1016.8 |
| 20260902011654 | 70 | 55 | 0.0 | 0.0 | 0.00 | 0.23 | 0.23 | 99 | 1016.9 |
| 20260902011149 | 70 | 55 | 0.0 | 1.0 | 0.00 | 0.23 | 0.23 | 99 | 1016.8 |
| 20260902010648 | 70 | 55 | 0.0 | 0.0 | 0.00 | 0.23 | 0.23 | 99 | 1016.9 |
| 20260902010144 | 70 | 55 | 0.0 | 0.0 | 0.00 | 0.23 | 0.23 | 99 | 1016.6 |
| 20260902005642 | 70 | 55 | 0.0 | 0.0 | 0.00 | 0.23 | 0.23 | 99 | 1016.8 |
| 20260902005138 | 70 | 55 | 0.0 | 0.0 | 0.00 | 0.23 | 0.23 | 98 | 1016.3 |
| 20260902004637 | 71 | 55 | 0.0 | 0.0 | 0.00 | 0.23 | 0.23 | 98 | 1016.3 |
| 20260902004132 | 71 | 55 | 1.0 | 1.0 | 0.00 | 0.23 | 0.23 | 98 | 1016.3 |
| 20260902003628 | 71 | 55 | 0.0 | 0.0 | 0.00 | 0.23 | 0.23 | 98 | 1016.2 |
| 20260902003123 | 71 | 55 | 0.0 | 1.0 | 0.00 | 0.23 | 0.23 | 98 | 1016.0 |
| 20260902002618 | 71 | 55 | 0.0 | 0.0 | 0.00 | 0.23 | 0.23 | 98 | 1016.1 |
| 20260902002113 | 72 | 55 | 0.0 | 0.0 | 0.00 | 0.23 | 0.23 | 98 | 1016.1 |
| 20260902001608 | 71 | 55 | 0.0 | 0.0 | 0.00 | 0.23 | 0.23 | 98 | 1015.8 |
| 20260902001104 | 71 | 55 | 0.0 | 0.0 | 0.00 | 0.23 | 0.23 | 98 | 1016.0 |
| 20260902000604 | 71 | 55 | 0.0 | 0.0 | 0.00 | 0.23 | 0.23 | 98 | 1015.9 |
| 20260902000059 | 71 | 55 | 0.0 | 1.0 | 0.00 | 0.23 | 0.23 | 98 | 1015.9 |
| 20260901235558 | 71 | 55 | 1.0 | 1.0 | 0.00 | 0.23 | 0.23 | 98 | 1015.9 |
| 20260901235054 | 71 | 55 | 0.0 | 0.0 | 0.00 | 0.23 | 0.23 | 97 | 1015.8 |
| 20260901234553 | 72 | 55 | 1.0 | 1.0 | 0.00 | 0.23 | 0.23 | 97 | 1015.7 |
| 20260901234048 | 72 | 55 | 0.0 | 0.0 | 0.00 | 0.23 | 0.23 | 96 | 1015.7 |
| 20260901233548 | 72 | 55 | 0.0 | 0.0 | 0.00 | 0.23 | 0.23 | 96 | 1015.8 |
| 20260901233044 | 72 | 55 | 0.0 | 0.0 | 0.00 | 0.23 | 0.23 | 95 | 1015.8 |
| 20260901232539 | 73 | 55 | 1.0 | 1.0 | 0.00 | 0.23 | 0.23 | 94 | 1015.8 |
| 20260901232035 | 74 | 55 | 1.0 | 1.0 | 0.00 | 0.23 | 0.23 | 93 | 1015.5 |
| 20260901231531 | 75 | 54 | 1.0 | 1.0 | 0.00 | 0.23 | 0.23 | 91 | 1015.5 |
| 20260901231028 | 76 | 54 | 0.0 | 0.0 | 0.00 | 0.23 | 0.23 | 89 | 1015.5 |
| 20260901230527 | 77 | 53 | 0.0 | 0.0 | 0.00 | 0.23 | 0.23 | 87 | 1015.6 |
| 20260901230022 | 77 | 53 | 0.0 | 0.0 | 0.00 | 0.23 | 0.23 | 86 | 1015.6 |
| 20260901225518 | 77 | 7 | 2.0 | 2.0 | 0.00 | 0.23 | 0.23 | 85 | 1015.6 |
| 20260901225012 | 78 | 26 | 2.0 | 2.0 | 0.00 | 0.23 | 0.23 | 84 | 1015.6 |
| 20260901224508 | 78 | 38 | 1.0 | 1.0 | 0.00 | 0.23 | 0.23 | 84 | 1015.3 |
| 20260901224004 | 78 | 38 | 1.0 | 1.0 | 0.00 | 0.23 | 0.23 | 83 | 1015.6 |
| 20260901223459 | 78 | 39 | 1.0 | 1.0 | 0.00 | 0.23 | 0.23 | 83 | 1015.5 |
| 20260901222954 | 78 | 16 | 3.0 | 3.0 | 0.00 | 0.23 | 0.23 | 83 | 1015.6 |
| 20260901222450 | 79 | 46 | 1.0 | 1.0 | 0.00 | 0.23 | 0.23 | 82 | 1015.5 |
| 20260901221946 | 79 | 336 | 1.0 | 1.0 | 0.00 | 0.23 | 0.23 | 82 | 1015.6 |
| 20260901221442 | 79 | 7 | 2.0 | 2.0 | 0.00 | 0.23 | 0.23 | 82 | 1015.4 |
| 20260901220942 | 78 | 18 | 1.0 | 2.0 | 0.00 | 0.23 | 0.23 | 83 | 1015.6 |
| 20260901220441 | 78 | 29 | 1.0 | 1.0 | 0.00 | 0.23 | 0.23 | 85 | 1015.5 |
| 20260901215940 | 77 | 45 | 1.0 | 1.0 | 0.00 | 0.23 | 0.23 | 86 | 1015.7 |
| 20260901215439 | 77 | 45 | 2.0 | 3.0 | 0.00 | 0.23 | 0.23 | 85 | 1015.6 |
| 20260901214938 | 78 | 41 | 1.0 | 1.0 | 0.00 | 0.23 | 0.23 | 84 | 1015.7 |
| 20260901214437 | 78 | 40 | 2.0 | 2.0 | 0.00 | 0.23 | 0.23 | 82 | 1015.6 |
| 20260901213938 | 78 | 56 | 1.0 | 2.0 | 0.00 | 0.23 | 0.23 | 81 | 1015.4 |
| 20260901213432 | 80 | 17 | 2.0 | 3.0 | 0.00 | 0.23 | 0.23 | 80 | 1015.5 |
| 20260901212931 | 80 | 334 | 2.0 | 2.0 | 0.00 | 0.23 | 0.23 | 80 | 1015.4 |
| 20260901212427 | 80 | 45 | 3.0 | 3.0 | 0.00 | 0.23 | 0.23 | 79 | 1015.4 |
| 20260901211924 | 80 | 65 | 1.0 | 2.0 | 0.00 | 0.23 | 0.23 | 78 | 1015.1 |
| 20260901211419 | 79 | 37 | 3.0 | 4.0 | 0.00 | 0.23 | 0.23 | 79 | 1015.1 |
| 20260901210915 | 79 | 15 | 2.0 | 2.0 | 0.00 | 0.23 | 0.23 | 82 | 1015.2 |
| 20260901210410 | 79 | 47 | 3.0 | 3.0 | 0.00 | 0.23 | 0.23 | 82 | 1015.1 |
| 20260901205906 | 78 | 294 | 1.0 | 1.0 | 0.00 | 0.23 | 0.23 | 84 | 1015.4 |
| 20260901205400 | 78 | 16 | 3.0 | 3.0 | 0.00 | 0.23 | 0.23 | 85 | 1015.4 |
| 20260901204856 | 78 | 70 | 1.0 | 1.0 | 0.00 | 0.23 | 0.23 | 83 | 1015.4 |
| 20260901204352 | 77 | 13 | 1.0 | 1.0 | 0.00 | 0.23 | 0.23 | 86 | 1015.6 |
| 20260901203853 | 78 | 281 | 2.0 | 2.0 | 0.00 | 0.23 | 0.23 | 84 | 1015.5 |
| 20260901203352 | 78 | 257 | 2.0 | 2.0 | 0.00 | 0.23 | 0.23 | 85 | 1015.6 |
| 20260901202847 | 78 | 356 | 2.0 | 2.0 | 0.00 | 0.23 | 0.23 | 84 | 1015.4 |
| 20260901202342 | 78 | 34 | 2.0 | 2.0 | 0.00 | 0.23 | 0.23 | 85 | 1015.4 |
| 20260901201838 | 77 | 181 | 1.0 | 1.0 | 0.00 | 0.23 | 0.23 | 85 | 1015.5 |
| 20260901201338 | 77 | 19 | 0.0 | 0.0 | 0.00 | 0.23 | 0.23 | 86 | 1015.5 |
| 20260901200832 | 77 | 21 | 2.0 | 2.0 | 0.00 | 0.23 | 0.23 | 86 | 1015.5 |
| 20260901200328 | 77 | 25 | 3.0 | 4.0 | 0.00 | 0.23 | 0.23 | 85 | 1015.7 |
| 20260901195826 | 77 | 6 | 3.0 | 4.0 | 0.00 | 0.23 | 0.23 | 85 | 1015.6 |
| 20260901195325 | 77 | 174 | 1.0 | 2.0 | 0.00 | 0.23 | 0.23 | 86 | 1015.6 |
| 20260901194821 | 77 | 23 | 1.0 | 2.0 | 0.00 | 0.23 | 0.23 | 85 | 1015.6 |
| 20260901194320 | 77 | 9 | 3.0 | 3.0 | 0.00 | 0.23 | 0.23 | 86 | 1015.8 |
| 20260901193817 | 77 | 51 | 2.0 | 2.0 | 0.00 | 0.23 | 0.23 | 85 | 1015.6 |
| 20260901193315 | 77 | 62 | 1.0 | 1.0 | 0.00 | 0.23 | 0.23 | 86 | 1015.7 |
| 20260901192810 | 78 | 17 | 1.0 | 2.0 | 0.00 | 0.23 | 0.23 | 85 | 1015.5 |
| 20260901192306 | 78 | 38 | 2.0 | 2.0 | 0.00 | 0.23 | 0.23 | 86 | 1015.5 |
| 20260901191802 | 78 | 233 | 2.0 | 2.0 | 0.00 | 0.23 | 0.23 | 87 | 1015.6 |
| 20260901191257 | 77 | 214 | 0.0 | 0.0 | 0.00 | 0.23 | 0.23 | 86 | 1015.8 |
| 20260901190754 | 77 | 213 | 0.0 | 1.0 | 0.00 | 0.23 | 0.23 | 87 | 1015.5 |
| 20260901190253 | 77 | 212 | 1.0 | 1.0 | 0.00 | 0.23 | 0.23 | 89 | 1015.7 |
| 20260901185752 | 77 | 212 | 0.0 | 1.0 | 0.00 | 0.23 | 0.23 | 88 | 1015.5 |
| 20260901185251 | 77 | 179 | 0.0 | 0.0 | 0.00 | 0.23 | 0.23 | 89 | 1015.4 |
| 20260901184747 | 77 | 190 | 1.0 | 1.0 | 0.00 | 0.23 | 0.23 | 87 | 1015.4 |
| 20260901184241 | 77 | 268 | 1.0 | 1.0 | 0.00 | 0.23 | 0.23 | 89 | 1015.4 |
| 20260901183737 | 77 | 289 | 2.0 | 3.0 | 0.00 | 0.23 | 0.23 | 86 | 1015.3 |
| 20260901183237 | 77 | 274 | 2.0 | 2.0 | 0.00 | 0.23 | 0.23 | 88 | 1015.4 |
| 20260901182733 | 76 | 306 | 3.0 | 3.0 | 0.00 | 0.23 | 0.23 | 89 | 1015.4 |
| 20260901182232 | 76 | 184 | 1.0 | 1.0 | 0.00 | 0.23 | 0.23 | 89 | 1015.3 |
| 20260901181728 | 76 | 284 | 2.0 | 2.0 | 0.00 | 0.23 | 0.23 | 88 | 1015.3 |
| 20260901181227 | 77 | 290 | 1.0 | 2.0 | 0.00 | 0.23 | 0.23 | 86 | 1015.1 |
| 20260901180726 | 77 | 219 | 2.0 | 2.0 | 0.00 | 0.23 | 0.23 | 88 | 1015.3 |
| 20260901180226 | 76 | 216 | 1.0 | 1.0 | 0.00 | 0.23 | 0.23 | 88 | 1015.2 |
| 20260901175725 | 76 | 175 | 1.0 | 1.0 | 0.00 | 0.23 | 0.23 | 88 | 1015.1 |
| 20260901175220 | 76 | 174 | 0.0 | 0.0 | 0.00 | 0.23 | 0.23 | 88 | 1015.2 |
| 20260901174715 | 75 | 209 | 0.0 | 1.0 | 0.00 | 0.23 | 0.23 | 89 | 1015.1 |
| 20260901174211 | 75 | 187 | 1.0 | 1.0 | 0.00 | 0.23 | 0.23 | 89 | 1015.2 |
| 20260901173706 | 75 | 159 | 1.0 | 1.0 | 0.00 | 0.23 | 0.23 | 89 | 1015.2 |
| 20260901173202 | 75 | 278 | 4.0 | 4.0 | 0.00 | 0.23 | 0.23 | 91 | 1015.2 |
| 20260901172658 | 75 | 170 | 0.0 | 0.0 | 0.00 | 0.23 | 0.23 | 91 | 1015.2 |
| 20260901172156 | 75 | 186 | 1.0 | 1.0 | 0.00 | 0.23 | 0.23 | 90 | 1015.0 |
| 20260901171655 | 75 | 170 | 1.0 | 1.0 | 0.00 | 0.23 | 0.23 | 90 | 1015.2 |
| 20260901171155 | 75 | 149 | 0.0 | 0.0 | 0.00 | 0.23 | 0.23 | 90 | 1015.2 |
| 20260901170654 | 75 | 172 | 2.0 | 2.0 | 0.00 | 0.23 | 0.23 | 89 | 1015.2 |
| 20260901170149 | 74 | 145 | 1.0 | 2.0 | 0.00 | 0.23 | 0.23 | 92 | 1015.1 |
| 20260901165648 | 73 | 152 | 0.0 | 0.0 | 0.00 | 0.23 | 0.23 | 95 | 1015.0 |
| 20260901165143 | 72 | 138 | 1.0 | 1.0 | 0.00 | 0.23 | 0.23 | 96 | 1015.3 |
| 20260901164639 | 72 | 164 | 1.0 | 1.0 | 0.00 | 0.23 | 0.23 | 96 | 1015.1 |
| 20260901164134 | 72 | 213 | 3.0 | 3.0 | 0.00 | 0.23 | 0.23 | 96 | 1015.3 |
| 20260901163630 | 72 | 200 | 1.0 | 1.0 | 0.00 | 0.23 | 0.23 | 96 | 1015.3 |
| 20260901163128 | 72 | 170 | 1.0 | 1.0 | 0.00 | 0.23 | 0.23 | 95 | 1015.3 |
| 20260901162624 | 72 | 167 | 1.0 | 1.0 | 0.00 | 0.23 | 0.23 | 95 | 1015.3 |
| 20260901162123 | 72 | 128 | 0.0 | 1.0 | 0.00 | 0.23 | 0.23 | 95 | 1015.4 |
| 20260901161622 | 72 | 163 | 0.0 | 0.0 | 0.00 | 0.23 | 0.23 | 94 | 1015.4 |
| 20260901161122 | 72 | 156 | 0.0 | 0.0 | 0.00 | 0.23 | 0.23 | 95 | 1015.5 |
| 20260901160619 | 72 | 155 | 0.0 | 0.0 | 0.00 | 0.23 | 0.23 | 95 | 1015.5 |
| 20260901160114 | 72 | 180 | 0.0 | 1.0 | 0.00 | 0.23 | 0.23 | 95 | 1015.4 |
| 20260901155612 | 72 | 150 | 0.0 | 0.0 | 0.00 | 0.23 | 0.23 | 95 | 1015.3 |
| 20260901155108 | 72 | 138 | 0.0 | 1.0 | 0.00 | 0.23 | 0.23 | 95 | 1015.3 |
| 20260901154608 | 72 | 145 | 0.0 | 1.0 | 0.00 | 0.23 | 0.23 | 97 | 1015.2 |
| 20260901154103 | 71 | 150 | 2.0 | 3.0 | 0.00 | 0.23 | 0.23 | 98 | 1015.2 |
| 20260901153558 | 71 | 184 | 2.0 | 2.0 | 0.00 | 0.23 | 0.23 | 99 | 1015.2 |
| 20260901153057 | 70 | 157 | 0.0 | 0.0 | 0.00 | 0.23 | 0.23 | 99 | 1015.4 |
| 20260901152552 | 70 | 148 | 2.0 | 2.0 | 0.00 | 0.23 | 0.23 | 99 | 1015.4 |
| 20260901152051 | 70 | 142 | 1.0 | 1.0 | 0.00 | 0.23 | 0.23 | 99 | 1015.4 |
| 20260901151547 | 70 | 230 | 2.0 | 3.0 | 0.00 | 0.23 | 0.23 | 99 | 1015.6 |
| 20260901151046 | 70 | 178 | 0.0 | 0.0 | 0.00 | 0.23 | 0.23 | 99 | 1015.7 |
| 20260901150545 | 70 | 193 | 1.0 | 2.0 | 0.00 | 0.23 | 0.23 | 99 | 1015.6 |